Station MRHO1 - 9063079 - Marblehead, OH Image indicating link to RSS feed of recent meteorological observations for station MRHO1


Conditions at MRHO1 as of
(7:18 pm EDT)
2318 GMT on 05/19/2024:
     

Click on the graph icon in the table below to see a time series plot of the last five days of that observation.

5-day plot - Wind Direction Wind Direction (WDIR): SE ( 140 deg true )
5-day plot - Wind Speed Wind Speed (WSPD): 1.9 kts
5-day plot - Wind Gust Wind Gust (GST): 4.1 kts
5-day plot - Atmospheric Pressure Atmospheric Pressure (PRES):29.90 in
5-day plot - Air Temperature Air Temperature (ATMP): 76.6 °F
5-day plot - Water Temperature Water Temperature (WTMP): 63.3 °F
5-day plot - Dew Point Dew Point (DEWP): 53.4 °F
5-day plot - Wind Speed at 10 Meters Wind Speed at 10 meters (WSPD10M): 1.9 kts
5-day plot - Wind Speed at 20 Meters Wind Speed at 20 meters (WSPD20M): 1.9 kts
5-day plot -  Wind Speed, Wind Gust and Atmospheric Pressure Combined plot of Wind Speed, Gust, and Air Pressure
NOS Water Level Observation Network Water Level
Previous observations
TIME
(EDT)
5-day plot - Wind Direction
WDIR
 
5-day plot - Wind Speed
WSPD
kts
5-day plot - Wind Gust
GST
kts
5-day plot - Wave Height
WVHT
ft
5-day plot - Dominant Wave Period
DPD
sec
5-day plot - Average Wave Period
APD
sec
5-day plot - Mean Wave Direction
MWD
 
5-day plot - Atmospheric Pressure
PRES
in
5-day plot - Pressure Tendency
PTDY
in
5-day plot - Air Temperature
ATMP
°F
5-day plot - Water Temperature
WTMP
°F
5-day plot - Dew Point
DEWP
°F
5-day plot - Salinity
SAL
psu
5-day plot - Visibility
VIS
nmi
5-day plot - Tide (above MLLW)
TIDE
ft
2024-05-19 07:12 pm SE 1.9 6.0----29.90- 76.8 63.3 53.2---
2024-05-19 07:06 pm SE 1.9 6.0----29.90- 76.1 63.3 54.3---
2024-05-19 07:00 pm SE 2.9 6.0------- 63.5----
2024-05-19 06:54 pmSSE 2.9 5.1------- 63.5----
2024-05-19 06:48 pm SE 2.9 5.1----29.89-- 63.5----
2024-05-19 06:42 pm SE 1.9 6.0----29.89-- 63.5----
2024-05-19 06:36 pm SE 2.9 7.0----29.89-- 63.5----
2024-05-19 06:30 pmSSE 2.9 6.0----29.89-- 63.5----
2024-05-19 06:24 pm SE 2.9 8.0----29.89-- 63.5----
2024-05-19 06:18 pm-------29.89- 78.1 63.5 54.1---
2024-05-19 06:12 pm-------29.89- 78.4 63.5 54.0---
2024-05-19 06:06 pm-------29.89- 78.1 63.5 54.5---
2024-05-19 06:00 pm SE 5.1 6.0----29.89-0.03 77.9 63.7 53.8---
2024-05-19 05:54 pm SE 4.1 5.1----29.89- 78.3 63.7 54.0---
2024-05-19 05:48 pmSSE 1.9 4.1----29.90- 79.3 63.7 54.9---
2024-05-19 05:42 pm SE 2.9 8.0----29.90- 78.8 63.7 54.3---
2024-05-19 05:36 pmESE 2.9 7.0----29.90- 77.9 63.9 53.6---
2024-05-19 05:30 pm E 4.1 7.0----29.90- 78.3 63.9 53.1---
2024-05-19 05:24 pmESE 5.1 6.0----29.90- 78.8 63.9 53.1---
2024-05-19 05:18 pm E 4.1 6.0----29.90- 77.7 63.9 53.6---
2024-05-19 05:12 pmESE 4.1 6.0----29.90- 77.9 63.9 54.1---
2024-05-19 05:06 pm E 5.1 7.0----29.91- 77.2 63.9 54.1---
2024-05-19 05:00 pm E 5.1 8.0----29.91-0.04 77.0 63.9 54.1---
2024-05-19 04:54 pmESE 4.1 8.0----29.91- 77.5 63.9 54.7---
2024-05-19 04:48 pmESE 4.1 8.0----29.91- 78.1 64.0 55.0---
2024-05-19 04:42 pmESE 6.0 7.0----29.91- 77.9 64.0 55.0---
2024-05-19 04:36 pmESE 2.9 8.0----29.91- 77.9 64.0 55.9---
2024-05-19 04:30 pm E 6.0 8.0----29.91- 77.2 64.0 54.3---
2024-05-19 04:24 pm E 5.1 7.0----29.91- 77.0 64.0 55.0---
2024-05-19 04:18 pm E 6.0 6.0----29.91- 76.1 64.2 55.0---
2024-05-19 04:12 pm E 5.1 7.0----29.91- 75.4 64.4 55.6---
2024-05-19 04:06 pm E 6.0 7.0----29.91- 74.7 64.4 56.1---
2024-05-19 04:00 pm E 5.1 6.0----29.91-0.04- 64.6----
2024-05-19 03:54 pm E 6.0 7.0----29.92-- 64.4----
2024-05-19 03:48 pm E 5.1 8.0----29.91-- 64.6----
2024-05-19 03:42 pm E 6.0 8.0----29.91-- 64.6----
2024-05-19 03:36 pm E 6.0 7.0----29.91-- 64.6----
2024-05-19 03:30 pm E 6.0 7.0----29.91- 76.1 64.4 55.9---
2024-05-19 03:24 pm E 5.1 7.0----29.92- 76.6 64.4 55.2---
2024-05-19 03:18 pm E 6.0 7.0----29.92- 76.5 64.4 55.4---
2024-05-19 03:12 pm E 6.0 7.0----29.92- 76.6 64.2 55.4---
2024-05-19 03:06 pm E 6.0 7.0----29.92- 75.7 64.4 56.1---
2024-05-19 03:00 pm E 5.1 6.0----29.92-0.04- 64.4----
2024-05-19 02:54 pm E 6.0 7.0----29.93-- 64.2----
2024-05-19 02:48 pm E 6.0 6.0----29.93- 73.6 64.2 56.7---
2024-05-19 02:42 pm E 5.1 6.0----29.93- 74.8 64.4 57.0---
2024-05-19 02:36 pm E 6.0 7.0----29.93- 72.7 64.4 58.1---
2024-05-19 02:30 pm E 7.0 8.0----29.94- 71.8 64.4 58.3---
2024-05-19 02:24 pm E 7.0 7.0----29.94- 72.3 64.4 58.1---
2024-05-19 02:18 pm E 6.0 7.0----29.94- 72.1 64.4 57.6---
2024-05-19 02:12 pm E 6.0 7.0----29.94- 72.7 64.6 57.9---
2024-05-19 02:06 pm E 7.0 8.0----29.94- 72.0 64.4 57.6---
2024-05-19 02:00 pm E 6.0 7.0----29.94-0.01 72.0 64.6 58.6---
2024-05-19 01:54 pm E 6.0 7.0----29.94- 70.7 64.6 59.7---
2024-05-19 01:48 pm E 6.0 8.0----29.95- 70.5 64.6 59.9---
2024-05-19 01:42 pm E 7.0 7.0----29.95- 70.0 64.6 59.7---
2024-05-19 01:36 pm E 5.1 6.0----29.95- 70.2 64.8 59.4---
2024-05-19 01:30 pm E 5.1 6.0----29.95- 71.1 64.9 59.0---
2024-05-19 01:24 pm E 6.0 6.0----29.95- 70.5 64.6 59.4---
2024-05-19 01:18 pm E 5.1 6.0----29.96-- 64.8----
2024-05-19 01:12 pm E 6.0 6.0----29.96-- 64.9----
2024-05-19 01:06 pm E 5.1 6.0----29.96-- 64.9----
2024-05-19 01:00 pm E 5.1 6.0----29.96+0.00- 64.8----
2024-05-19 12:54 pmENE 5.1 6.0----29.96-- 64.6----
2024-05-19 12:48 pm E 5.1 6.0----29.96- 72.3 64.4 57.2---
2024-05-19 12:42 pm E 5.1 6.0----29.96- 71.6 64.6 57.7---
2024-05-19 12:36 pm E 5.1 6.0----29.96- 70.9 64.0 58.6---
2024-05-19 12:30 pm E 5.1 6.0----29.96- 70.3 64.0 59.0---
2024-05-19 12:24 pm E 5.1 6.0----29.96- 69.3 64.0 59.7---
2024-05-19 12:18 pm E 5.1 5.1----29.95- 68.7 64.0 59.9---
2024-05-19 12:12 pm E 4.1 5.1----29.96- 68.4 63.9 59.7---
2024-05-19 12:06 pm E 4.1 5.1----29.96- 68.4 63.9 59.9---
2024-05-19 12:00 pm E 5.1 5.1----29.96+0.00 67.6 63.9 59.4---
2024-05-19 11:54 amENE 5.1 5.1----29.96- 68.0 63.9 59.5---
2024-05-19 11:48 am E 5.1 6.0----29.96- 67.8 63.9 59.4---
2024-05-19 11:42 amENE 5.1 6.0----29.96- 67.8 63.9 58.6---
2024-05-19 11:36 amENE 4.1 5.1----29.96- 68.2 63.9 58.5---
2024-05-19 11:30 am E 4.1 5.1----29.96- 68.7 63.7 58.1---
2024-05-19 11:24 amENE 2.9 5.1----29.96- 69.8 63.9 57.2---
2024-05-19 11:18 am-------29.95- 71.4 63.7 54.5---
2024-05-19 11:12 am-------29.96- 72.1 63.5 53.6---
2024-05-19 11:06 am-------29.96- 72.5 63.5 52.7---
2024-05-19 11:00 am-------29.96+0.00 74.5 63.3 49.1---
2024-05-19 10:54 am-------29.96- 73.9 63.5 50.9---
2024-05-19 10:48 am-------29.96- 72.3 63.7 55.9---
2024-05-19 10:42 am-------29.95- 69.1 63.9 58.6---
2024-05-19 10:36 am-------29.95- 68.0 63.1 58.5---
2024-05-19 10:30 amENE 1.0 1.9----29.95- 67.8 63.1 58.6---
2024-05-19 10:24 am NE 1.9 2.9----29.95- 67.6 63.1 59.2---
2024-05-19 10:18 amNNE 1.9 2.9----29.96- 66.9 63.0 58.6---
2024-05-19 10:12 am N 1.9 2.9----29.96- 66.9 63.0 58.5---
2024-05-19 10:06 amNNE 1.9 2.9----29.96- 67.1 63.0 58.6---
2024-05-19 10:00 am N 1.9 1.9----29.96+0.01- 63.0----
2024-05-19 09:54 am- 0.0 2.9----29.96-- 63.0----
2024-05-19 09:48 am-------29.96- 66.9 63.0 58.3---
2024-05-19 09:42 am-------29.96- 66.7 63.0 58.5---
2024-05-19 09:36 am-------29.96- 67.3 63.0 58.8---
2024-05-19 09:30 amNNW 1.0 2.9----29.96-- 63.0----
2024-05-19 09:24 am NW 2.9 2.9----29.96-- 62.8----
2024-05-19 09:18 am NW 1.9 2.9----29.96-- 62.8----
2024-05-19 09:12 amWNW 2.9 4.1----29.96-- 62.8----
2024-05-19 09:06 am W 1.0 5.1----29.96-- 62.8----
2024-05-19 09:00 am SW 1.9 5.1----29.96+0.03- 62.8----
2024-05-19 08:54 amSSW 1.9 4.1----29.96-- 62.8----
2024-05-19 08:48 am S 1.9 2.9----29.96- 68.0 62.8 58.5---
2024-05-19 08:42 am S 1.9 4.1----29.96- 67.5 62.8 58.8---
2024-05-19 08:36 am S 2.9 4.1----29.96- 66.7 62.8 58.3---
2024-05-19 08:30 am-------29.96- 66.6- 58.3---
2024-05-19 08:24 am-------29.95- 66.6- 58.6---
2024-05-19 08:18 amSSE 1.9 2.9----29.95-- 62.6----
2024-05-19 08:12 amSSE 2.9 4.1----29.95-- 62.6----
2024-05-19 08:06 am SE 1.9 2.9----29.95-- 62.6----
2024-05-19 08:00 amSSE 1.9 2.9----29.95+0.03 65.3 62.6 59.4---
2024-05-19 07:54 am SE 1.0 1.9----29.95- 64.8 62.6 58.8---
2024-05-19 07:48 amSSE 1.9 2.9----29.95- 64.4 62.6 59.0---
2024-05-19 07:42 amSSE 1.9 1.9----29.95- 64.2 62.6 59.2---
2024-05-19 07:36 am- 0.0 1.9----29.95- 64.4 62.6 59.5---
2024-05-19 07:30 am SE 1.0 1.9----29.95- 63.7 62.6 59.0---
2024-05-19 07:24 am- 0.0 1.9----29.95- 63.1 62.6 58.8---
2024-05-19 07:18 am- 0.0 1.9----29.94- 62.2 62.6 58.6---
2024-05-19 07:12 am SE 1.0 1.9----29.94- 62.2 62.6 58.3---
2024-05-19 07:06 am- 0.0 1.0----29.94- 61.9 62.4 58.5---
2024-05-19 07:00 amSSW 1.0 1.0----29.94+0.02------
2024-05-19 06:54 am- 0.0 1.0----29.95-------
2024-05-19 06:48 am- 0.0 1.0----29.94-- 62.4----
2024-05-19 06:42 am- 0.0 0.0----29.94-- 62.4----
2024-05-19 06:36 am- 0.0 0.0----29.94-- 62.4----
2024-05-19 06:30 am- 0.0 1.0----29.94- 59.9 62.4----
2024-05-19 06:24 am- 0.0 1.0----29.94- 60.1 62.4----
2024-05-19 06:18 am- 0.0 1.9----29.93-- 62.4----
2024-05-19 06:12 am W 2.9 5.1----29.93-- 62.4----
2024-05-19 06:06 am W 4.1 4.1----29.93-- 62.4----
2024-05-19 06:00 am-------29.93+0.02------
2024-05-19 05:54 am-------29.92-------
2024-05-19 05:48 am- 0.0 0.0----29.92- 59.2 62.4 55.0---
2024-05-19 05:42 amESE 1.0 1.9----29.92- 59.2 62.4 55.0---
2024-05-19 05:36 am- 0.0 1.9----29.92- 59.5 62.4 55.4---
2024-05-19 05:30 amESE 1.0 2.9----29.92- 60.3 62.4 56.3---
2024-05-19 05:24 amESE 1.9 2.9----29.92- 60.4 62.4 55.9---
2024-05-19 05:18 am- 0.0 0.0----29.92- 59.2 62.4 55.0---
2024-05-19 05:12 am- 0.0 1.0----29.92- 59.5 62.4 55.2---
2024-05-19 05:06 am- 0.0 1.0----29.92- 59.2 62.4 54.7---
2024-05-19 05:00 am- 0.0 1.0----29.92+0.01 59.4 62.4 55.0---
2024-05-19 04:54 amESE 1.0 1.9----29.92- 59.7 62.4 55.0---
2024-05-19 04:48 amESE 1.0 1.0----29.92- 59.4 62.6 55.2---
2024-05-19 04:42 am- 0.0 1.0----29.92- 59.2 62.6 55.0---
2024-05-19 04:36 am- 0.0 1.0----29.92- 59.4 62.6 54.9---
2024-05-19 04:30 am- 0.0 1.0----29.92- 59.4 62.6 54.9---
2024-05-19 04:24 amESE 1.0 1.9----29.92- 59.2 62.6 54.7---
2024-05-19 04:18 amESE 1.9 1.9----29.92- 59.4 62.6 55.0---
2024-05-19 04:12 am SE 1.0 1.9----29.92- 59.2 62.6 54.7---
2024-05-19 04:06 amESE 1.0 1.0----29.92- 59.5 62.6 54.9---
2024-05-19 04:00 amESE 1.0 1.9----29.92+0.01 59.0 62.6 54.9---
2024-05-19 03:54 amESE 1.9 1.9----29.92- 59.2 62.6 54.9---
2024-05-19 03:48 amESE 1.0 1.9----29.92- 59.4 62.6 54.9---
2024-05-19 03:42 am- 0.0 1.0----29.92- 59.0 62.6 54.7---
2024-05-19 03:36 am- 0.0 1.0----29.91- 58.5 62.8 54.1---
2024-05-19 03:30 amSSE 1.0 1.9----29.91- 59.0 62.8 54.7---
2024-05-19 03:24 am SE 1.9 1.9----29.91- 59.2 62.8 54.7---
2024-05-19 03:18 am S 1.9 1.9----29.91- 58.8 62.8 54.3---
2024-05-19 03:12 am- 0.0 1.9----29.91- 58.8 62.8 54.3---
2024-05-19 03:06 am SE 1.0 1.9----29.91- 59.2 62.8 54.5---
2024-05-19 03:00 am- 0.0 1.0----29.91+0.01 58.8 63.0 54.1---
2024-05-19 02:54 am- 0.0 1.0----29.91- 59.2 63.0 54.9---
2024-05-19 02:48 am W 1.9 2.9----29.91- 59.5 63.0 55.2---
2024-05-19 02:42 am- 0.0 1.0----29.91- 59.0 63.0 54.7---
2024-05-19 02:36 am- 0.0 1.0----29.91- 59.0 63.0 54.5---
2024-05-19 02:30 am- 0.0 1.0----29.91- 58.8 63.0 54.1---
2024-05-19 02:24 am- 0.0 1.0----29.91- 59.2 63.0 54.3---
2024-05-19 02:18 am- 0.0 1.0----29.91- 59.2 63.0 54.3---
2024-05-19 02:12 am- 0.0 1.0----29.91- 58.8 63.0 54.0---
2024-05-19 02:06 am- 0.0 0.0----29.91- 59.0 63.1 54.0---
2024-05-19 02:00 am- 0.0 1.0----29.91+0.01 59.0 63.1 53.6---
2024-05-19 01:54 am- 0.0 1.0----29.91- 59.4 63.1 54.5---
2024-05-19 01:48 am S 1.0 1.0----29.91- 59.5 63.1 54.9---
2024-05-19 01:42 am- 0.0 1.9----29.91- 59.5 63.1 54.7---
2024-05-19 01:36 am SE 1.9 2.9----29.91- 59.4 63.1 54.5---
2024-05-19 01:30 amSSE 1.9 2.9----29.91- 59.5 63.1 54.3---
2024-05-19 01:24 amESE 1.9 1.9----29.91- 59.5 63.1 54.5---
2024-05-19 01:18 am- 0.0 1.0----29.91- 59.5 63.1 54.5---
2024-05-19 01:12 amSSE 1.0 1.9----29.91- 59.7 63.1 54.3---
2024-05-19 01:06 amSSE 1.0 2.9----29.91- 60.3 63.1 54.9---
2024-05-19 01:00 am SE 1.9 2.9----29.91+0.02 60.8 63.1 55.2---
2024-05-19 12:54 amESE 1.9 2.9----29.91- 60.8 63.1 55.2---
2024-05-19 12:48 amESE 1.9 1.9----29.91- 60.6 63.1 55.0---
2024-05-19 12:42 amESE 1.0 2.9----29.91- 60.6 63.1 55.2---
2024-05-19 12:36 amESE 1.9 2.9----29.91- 60.8 63.1 55.2---
2024-05-19 12:30 am SE 1.9 2.9----29.91- 61.0 63.1 55.2---
2024-05-19 12:24 am- 0.0 1.9----29.91- 60.6 63.3 55.2---
2024-05-19 12:18 am SE 1.9 2.9----29.91- 60.8 63.3 55.4---
2024-05-19 12:12 am SE 1.9 4.1----29.91- 60.8 63.1 55.2---
2024-05-19 12:06 am SE 1.9 4.1----29.91- 60.8 63.3 55.2---
2024-05-19 12:00 am SE 1.9 4.1----29.90+0.03 61.0 63.3 55.2---
2024-05-18 11:54 pm SE 1.9 2.9----29.91- 60.8 63.3 55.2---
2024-05-18 11:48 pm SE 1.0 1.9----29.91- 61.0 63.3 55.6---
2024-05-18 11:42 pm- 0.0 4.1----29.91- 60.8 63.3 55.4---
2024-05-18 11:36 pm SE 2.9 4.1----29.90- 60.8 63.3 55.4---
2024-05-18 11:30 pm SE 1.9 4.1----29.90- 61.0 63.3 55.6---
2024-05-18 11:24 pm SE 2.9 4.1----29.90- 61.0 63.5 55.8---
2024-05-18 11:18 pmESE 1.9 5.1----29.90- 60.8 63.5 55.6---
2024-05-18 11:12 pmESE 2.9 5.1----29.90- 60.6 63.5 55.4---
2024-05-18 11:06 pm E 2.9 5.1----29.90- 60.8 63.5 55.6---
2024-05-18 11:00 pmESE 1.9 6.0----29.90+0.02 60.8 63.5 55.6---
2024-05-18 10:54 pm E 4.1 5.1----29.90- 61.0 63.5 55.6---
2024-05-18 10:48 pmESE 2.9 5.1----29.90- 60.6 63.5 55.2---
2024-05-18 10:42 pmESE 2.9 6.0----29.90- 60.6 63.7 55.2---
2024-05-18 10:36 pm E 2.9 6.0----29.89- 60.8 63.7 55.4---
2024-05-18 10:30 pmESE 2.9 5.1----29.89- 60.6 63.9 55.2---
2024-05-18 10:24 pmESE 1.9 4.1----29.90- 60.8 64.0 55.6---
2024-05-18 10:18 pm SE 1.0 5.1----29.89- 60.6 64.0 55.6---
2024-05-18 10:12 pmESE 2.9 5.1----29.89- 60.6 63.9 55.4---
2024-05-18 10:06 pmESE 2.9 6.0----29.89- 60.6 63.9 55.2---
2024-05-18 10:00 pmESE 4.1 5.1----29.89+0.00 60.4 64.0 55.0---
2024-05-18 09:54 pmESE 2.9 5.1----29.89- 60.4 63.9 55.0---
2024-05-18 09:48 pmESE 2.9 5.1----29.89- 60.4 63.9 55.0---
2024-05-18 09:42 pm E 2.9 6.0----29.88- 60.6 64.0 55.2---
2024-05-18 09:36 pmESE 2.9 5.1----29.88- 60.6 64.2 55.2---
2024-05-18 09:30 pmESE 2.9 5.1----29.88- 60.4 64.4 55.0---
2024-05-18 09:24 pmESE 4.1 5.1----29.88- 60.6 64.4 55.0---
2024-05-18 09:18 pm SE 1.9 4.1----29.88- 60.8 64.6 55.6---
2024-05-18 09:12 pm SE 2.9 4.1----29.88- 60.8 64.6 55.4---
2024-05-18 09:06 pmESE 2.9 7.0----29.88- 60.8 64.6 55.4---
2024-05-18 09:00 pmESE 5.1 8.9----29.88-0.02 60.8 64.6 55.0---
2024-05-18 08:54 pm E 5.1 8.0----29.88- 61.0 64.8 55.2---
2024-05-18 08:48 pmESE 5.1 8.9----29.87- 61.0 64.8 55.4---
2024-05-18 08:42 pmESE 6.0 8.0----29.87- 61.0 64.6 55.2---
2024-05-18 08:36 pmESE 6.0 8.9----29.87- 61.0 64.4 55.0---
2024-05-18 08:30 pmESE 6.0 8.9----29.88- 61.0 64.6 55.2---
2024-05-18 08:24 pmESE 5.1 8.0----29.88- 61.2 64.8 55.6---
2024-05-18 08:18 pmESE 6.0 8.9----29.88- 61.0 64.8 55.6---
2024-05-18 08:12 pm E 5.1 8.0----29.88- 61.2 64.9 56.3---
2024-05-18 08:06 pm E 8.0 8.9----29.88- 61.0 64.9 55.9---
2024-05-18 08:00 pm E 7.0 8.9----29.88-0.01 60.8 64.9 55.9---
2024-05-18 07:54 pm E 7.0 8.9----29.88- 60.8 64.9 56.1---
2024-05-18 07:48 pm E 7.0 8.0----29.89- 60.4 64.9 55.9---
2024-05-18 07:42 pm E 7.0 8.0----29.88- 60.1 64.9 55.6---
2024-05-18 07:36 pm E 8.0 8.9----29.88- 59.7 64.9 55.2---
2024-05-18 07:30 pm E 7.0 8.0----29.89- 59.7 64.9 55.4---
2024-05-18 07:24 pm E 6.0 8.0----29.89- 59.5 64.9 55.2---
2024-05-18 07:18 pm E 7.0 8.0----29.89-- 64.8----
2024-05-18 07:12 pmENE 5.1 7.0----29.89-- 64.8----
2024-05-18 07:06 pmENE 6.0 8.0----29.89-- 64.6----
2024-05-18 07:00 pm E 7.0 8.0----29.89-0.01- 64.6----
2024-05-18 06:54 pm E 6.0 7.0----29.89-- 64.6----